SCP
-0 -0 -0 0 0 0 -0 0 0 -0 -0 -0 -0 -0 0 -0 0 0 -0 -0 -0 -0 -0 -0 0 0 0 0 0 0 -0 0 0 -0 0 0 0 0 0 0 0 0 -0 -0 -0 -0 0 -0 -0
-0 -0 -0 0 -0 0 -0 -0 -0 -0 -0 -0 -0 -0 0 -0 -0 -0 -0 -0 -0 -0 -0 -0 0 -0 0 -0 -0 -0 -0 -0 0 0 0 0 0 -0 0 -0 -0 -0 -0 -0 -0 -0 -0 -0 -0
-0 -0 -1 0 -0 -0 -0 -0 -0 -0 0 0 0 -0 -0 -0 -0 -0 -0 -0 -0 -0 -0 -0 -0 0 0 0 -0 -0 -0 -0 -0 0 0 0 -0 -0 -0 -0 -0 -0 -0 -0 0 -0 -0 0 0
-0 -1 -0 0 -0 -0 -0 -0 -0 -0 -0 0 0 -0 -0 -0 -0 -0 -0 0 -0 -0 -0 -0 -0 -0 0 -0 -0 -0 -0 -0 -0 -0 -0 0 -0 -0 -0 -0 -0 -0 -0 -0 0 0 -0 0 -0
-0 -0 -0 -0 -0 -0 -0 0 0 0 0 -0 0 0 -0 -0 -0 -0 -0 0 -0 -0 -0 -0 -0 -0 -0 -0 -0 -0 -0 -0 -0 -0 -0 0 0 -0 -0 -0 -0 0 -0 0 -0 -0 -0 -0 0
-0 -0 -0 -0 -0 -0 0 0 0 -0 -0 0 0 -0 -0 -0 -0 -0 0 0 -0 0 -0 -0 -0 -0 -0 -0 -0 -0 -0 -0 -0 -0 -0 -0 -0 -0 0 0 0 0 -0 -0 -0 -0 -0 -0 -0
-0 0 -0 -0 0 -0 -0 0 0 -0 -0 0 -0 0 -0 -0 -0 -0 -0 0 -0 -0 -0 -0 -0 -0 -0 -0 -0 -0 -0 -0 -0 0 0 0 -0 -0 0 0 -0 -0 -0 -0 -0 -0 -0 -0 -0
0 -0 -0 -0 -0 -0 -0 0 0 0 -0 -0 0 0 -0 -0 -0 -0 -0 0 0 -0 -0 -0 -0 -0 -0 -0 -0 -0 -0 -0 -0 0 -0 0 -0 -0 0 0 0 -0 -0 -0 0 -0 -0 0 -0
-0 0 -0 -0 -0 0 0 -0 0 0 0 0 -0 -0 0 -0 -0 -0 -0 -0 -0 -0 -0 -0 -0 -0 0 -0 -0 -0 -0 -0 -0 0 -0 -0 -0 -0 -0 0 -0 0 0 -0 -0 -0 -0 -0 -0
-0 -0 -0 -0 -0 -0 0 -0 0 0 0 0 0 0 -0 -0 -0 -0 -0 -0 -0 -0 0 0 -0 -0 -0 -0 -0 -0 -0 -0 -0 0 -0 -0 0 -0 -0 -0 -0 -0 -0 0 0 -0 0 -0 0
-0 -0 0 0 -0 0 0 0 0 -0 0 0 0 -0 -0 -0 -0 -0 -0 -0 -0 -0 -0 -0 0 0 0 -0 -0 -0 -0 0 0 0 0 -0 0 -0 -0 -0 0 0 -0 0 -0 -0 -0 -0 -0
-0 0 -0 0 0 -0 -0 0 -0 0 0 0 0 -0 -0 -0 -0 -0 -0 -0 -0 -0 0 0 -0 0 -0 0 0 -0 -0 0 0 0 -0 -0 0 0 0 0 -0 0 0 0 -0 0 -0 0 0
-0 0 0 0 0 0 0 -0 -0 0 0 0 -0 0 -0 -0 -0 -0 -0 -0 -0 -0 -0 -0 -0 0 0 0 0 0 0 0 0 0 0 0 0 0 0 0 0 0 0 0 0 0 0 -0 -0
0 0 0 0 0 0 0 -0 0 0 0 0 0 0 0 -0 -0 -0 -0 -0 -0 -0 -0 -0 -0 0 0 0 0 0 0 0 0 -0 -0 0 -0 0 -0 -0 -0 -0 0 0 -0 -0 -0 -0 -0
-0 -0 0 0 0 -0 0 -0 0 0 0 0 0 0 0 -0 -0 -0 -0 -0 -0 -0 -0 0 0 0 0 0 0 0 -0 0 0 -0 0 -0 0 -0 -0 -0 -0 -0 -0 -0 -0 -0 -0 0 -0
0 0 -0 0 0 0 -0 0 0 0 0 0 0 0 0 0 0 -0 -0 -0 -0 -0 -0 -0 -0 -0 -0 0 0 0 -0 0 0 -0 -0 0 0 -0 -0 -0 -0 -0 0 0 0 -0 0 -0 0
-0 0 0 0 0 0 0 0 0 0 0 0 0 0 0 0 -0 -0 -0 -0 -0 -0 0 -0 -0 -0 -0 0 0 0 0 0 0 0 -0 -0 -0 -0 -0 -0 0 -0 -0 0 0 -0 -0 -0 -0
0 0 0 0 0 0 0 0 0 0 0 0 0 0 0 0 -0 -0 -0 -0 -0 -0 0 -0 0 0 0 1 0 0 1 0 0 0 0 0 0 0 -0 -0 0 -0 0 0 0 -0 -0 0 -0
0 0 0 0 0 0 -0 0 -0 0 0 0 -0 -0 -0 -0 -0 0 -0 -0 -0 0 0 0 -0 0 0 0 0 0 0 0 0 0 0 0 0 0 0 -0 -0 -0 0 -0 0 0 -0 -0 -0
0 -0 -0 0 0 0 0 -0 0 0 -0 -0 -0 -0 -0 -0 -0 0 -0 -0 -0 -0 -0 -0 -0 -0 0 0 0 0 0 0 0 -0 0 0 0 0 0 0 -0 0 -0 -0 0 0 -0 -0 0
-0 -0 0 0 -0 -0 0 0 -0 0 0 0 -0 -0 -0 -0 -0 -0 -0 -0 -0 0 -0 -0 -0 -0 -0 0 0 0 1 0 0 -0 0 0 0 0 0 0 -0 0 -0 -0 0 -0 -0 -0 0
-0 0 0 -0 -0 -0 0 0 0 -0 -0 0 0 -0 -0 -0 -0 -0 -0 -0 -0 -0 -0 -0 -0 -0 -0 -0 0 0 0 0 0 -0 0 0 0 0 0 -0 0 0 -0 -0 0 -0 0 0 -0
-0 -0 -0 -0 -0 -0 0 0 0 -0 -0 0 0 -0 -0 0 -0 -0 -1 -0 -0 -0 -0 -0 -0 0 -0 0 0 0 0 -0 -0 0 0 0 0 0 -0 0 -0 0 0 0 0 -0 0 0 0
-0 -0 -0 -0 -0 0 -0 0 0 0 -0 0 0 0 0 0 -0 -0 -0 -0 0 -0 -0 -0 -0 0 0 0 0 0 0 0 -0 0 0 0 0 0 0 -0 -0 -0 -0 -0 0 0 -0 -0 0
-0 -0 -0 0 0 0 -0 0 0 -0 0 0 -0 0 -0 -0 0 -0 -0 -0 -0 -0 -0 -0 -0 -0 -0 0 -0 0 0 -0 0 -0 0 0 -0 0 0 -0 -0 0 0 -0 -0 0 -0 0 0
-0 -0 -0 -0 0 0 -0 0 0 0 0 -0 0 0 0 0 0 -0 -0 0 -0 -0 -0 -1 -1 0 0 0 0 0 0 0 0 -0 -0 -0 0 0 0 -0 0 -0 0 -0 0 0 0 0 0
-0 -0 -0 -0 -0 0 0 -0 0 0 -0 -0 0 0 0 0 0 0 -0 0 -0 0 -0 -0 -0 -1 -0 0 0 0 0 0 0 -0 -0 -0 -0 0 0 0 0 0 0 0 0 0 -0 0 0
-0 0 -0 -0 -0 -0 0 0 0 0 0 0 0 0 0 0 0 0 -0 -0 -0 -0 -0 -0 -0 -1 -0 -0 0 0 0 0 0 0 0 0 0 0 0 0 0 0 0 0 0 0 0 0 0
-0 -0 -0 -0 -0 -0 0 0 -0 0 0 0 0 0 0 0 0 0 -0 -0 -0 -0 -0 -0 -1 -0 -0 -0 0 0 0 0 0 0 0 0 0 0 0 0 0 -0 -0 0 0 0 0 0 0
-0 -0 -0 -0 0 0 -0 0 -0 0 0 0 0 0 0 0 0 0 0 -0 -0 -0 -0 -0 -0 -0 0 -0 -0 -0 -0 0 0 0 0 0 0 0 0 0 0 0 0 0 0 0 -0 0 0
Wind_Speed_500mb
16 14 7 9 9 7 15 10 6 14 16 18 17 21 18 30 20 8 41 36 42 38 38 37 37 34 29 25 29 27 27 26 27 26 24 20 18 15 14 14 12 13 10 1 4 3 4 4 8
2 11 9 17 4 4 17 11 13 24 21 6 13 5 9 27 20 37 45 43 43 38 36 35 34 33 30 28 27 28 28 26 24 21 18 14 10 10 11 12 11 11 8 14 12 11 7 6 4
7 10 29 9 11 8 18 6 13 12 9 10 9 10 16 18 20 39 39 46 42 36 35 36 35 32 30 30 26 26 26 23 22 20 13 9 6 8 11 10 12 14 14 17 20 18 15 11 10
11 16 16 4 19 28 22 17 18 19 15 9 21 17 19 12 31 26 46 45 40 37 33 40 33 36 29 29 27 23 21 21 21 17 13 10 9 10 8 10 11 12 12 15 18 18 17 16 14
10 15 4 18 19 15 15 7 3 10 7 12 7 4 22 22 21 33 47 43 39 36 32 38 31 34 28 25 24 23 20 18 15 13 11 10 10 10 11 13 11 9 9 10 11 11 10 12 10
12 12 6 17 18 12 6 5 12 13 13 12 11 22 19 18 32 45 42 39 37 35 29 34 32 29 27 21 21 21 18 15 13 14 13 12 13 12 13 10 6 7 4 8 8 5 5 6 5
11 11 12 14 9 20 16 2 10 12 20 10 12 13 25 31 38 42 40 39 36 33 32 28 28 29 27 22 19 21 19 14 14 13 12 12 11 11 10 8 8 10 8 6 5 3 5 4 5
9 13 6 10 8 20 15 3 3 7 19 8 2 12 30 39 42 41 39 38 35 33 30 27 26 25 22 21 22 21 17 12 12 13 14 13 10 7 5 8 10 7 7 12 8 7 6 6 7
12 14 12 19 19 10 10 4 4 7 7 6 3 24 36 39 43 43 43 39 37 32 30 27 26 26 22 20 18 19 17 14 14 14 13 11 9 10 6 11 10 11 2 10 11 7 6 6 4
19 11 15 10 17 15 9 11 4 12 11 10 9 11 35 39 44 45 46 42 41 35 32 30 27 26 28 31 24 14 13 10 9 10 12 10 9 12 3 9 14 16 15 11 20 12 6 6 16
10 15 6 10 16 16 14 7 4 8 7 17 20 23 32 39 42 44 43 46 38 36 32 37 29 33 23 28 13 17 25 13 14 13 17 13 4 9 5 13 11 9 13 11 11 15 11 14 14
14 3 4 7 7 11 11 11 8 6 3 8 20 24 34 39 40 41 43 38 38 36 35 32 30 24 26 24 20 25 9 14 19 14 13 14 10 12 13 13 6 11 9 5 4 6 11 17 13
10 12 13 12 4 10 7 12 10 6 8 10 7 23 33 35 36 38 40 39 38 37 36 35 30 29 28 22 19 19 14 15 17 19 13 13 11 9 21 9 7 7 8 4 6 11 14 18 11
11 20 21 7 11 6 12 16 7 11 5 10 13 24 31 34 34 36 39 43 40 36 37 35 33 33 28 27 21 23 19 16 16 19 15 25 14 10 17 10 24 3 5 6 8 5 9 12 13
16 25 18 10 13 11 18 28 21 12 10 15 20 23 29 35 34 35 41 42 41 37 36 37 35 33 30 28 24 31 20 18 18 18 19 20 15 12 14 6 6 5 2 8 5 1 10 13 16
16 22 11 15 9 10 11 17 14 17 15 19 24 27 31 29 31 34 41 40 42 39 37 32 26 35 27 28 26 28 20 15 14 18 18 18 16 19 8 2 1 7 6 3 5 8 4 11 14
19 17 8 11 11 8 10 21 11 13 20 23 28 33 33 33 34 38 41 42 41 41 38 34 30 29 31 29 30 29 25 17 16 20 21 20 16 15 9 6 2 6 4 3 9 5 13 15 10
15 10 11 14 7 15 21 23 16 23 25 29 30 33 35 37 40 41 41 41 43 42 40 34 35 28 27 29 36 30 24 22 20 24 26 18 17 16 12 9 11 3 5 1 5 6 8 5 5
17 18 19 15 11 19 25 25 25 18 32 25 35 37 45 45 47 46 39 44 41 42 40 41 35 32 34 30 28 31 31 24 21 23 25 24 22 19 18 11 11 5 10 9 4 6 6 5 6
21 25 29 2 7 20 21 25 6 7 12 28 32 32 38 43 48 46 46 46 42 44 42 39 38 40 36 28 28 24 26 29 21 26 28 27 24 21 15 15 10 13 10 8 7 7 6 7 9
28 30 15 21 22 33 19 17 44 17 8 8 25 32 33 39 60 63 59 50 45 45 43 42 43 41 42 37 34 31 23 25 30 30 27 26 28 23 20 18 17 12 13 16 3 7 10 8 10
30 19 14 20 23 18 6 5 16 26 22 11 15 26 35 38 40 71 61 56 52 49 42 41 41 43 41 42 41 37 37 29 27 34 30 28 29 25 21 17 16 15 16 8 7 10 9 10 7
24 21 22 28 29 37 7 2 19 63 25 13 8 14 21 33 44 46 63 51 61 52 45 42 42 43 41 38 41 36 35 35 25 29 33 34 31 25 19 21 16 12 10 15 20 15 10 10 13
20 30 39 40 32 14 25 5 12 19 15 12 16 12 4 25 36 46 47 67 54 48 41 42 44 42 40 39 36 40 38 39 32 31 37 34 27 26 27 25 21 17 17 16 13 12 13 13 15
31 35 25 15 21 7 39 8 3 7 16 13 11 14 9 8 25 39 42 49 37 36 41 45 44 40 39 41 37 39 36 39 32 27 34 34 36 33 32 26 22 20 18 18 16 16 15 15 14
22 25 17 25 14 9 42 7 14 18 24 13 16 16 7 3 13 30 38 44 36 34 45 46 46 42 40 44 39 40 34 30 41 30 28 34 36 33 31 31 22 22 21 17 14 16 15 18 14
19 20 20 24 33 14 11 41 18 31 31 22 19 22 18 6 14 28 28 38 40 41 51 52 41 42 40 37 38 36 34 35 30 27 32 41 40 29 24 28 22 25 26 22 20 19 16 18 14
25 24 23 11 15 24 16 14 9 11 22 20 14 20 21 12 14 21 28 33 39 39 39 42 40 40 33 33 35 32 30 34 31 30 31 34 35 30 36 26 24 22 21 21 23 17 10 14 12
21 27 16 26 14 20 15 2 20 11 14 13 15 15 20 16 11 19 26 31 35 35 40 42 40 36 39 38 34 31 32 33 35 34 33 42 34 29 29 24 25 23 21 20 22 18 19 14 15
21 28 31 19 16 10 30 12 18 18 17 15 19 12 15 14 8 8 20 26 31 34 38 41 33 33 34 37 40 37 35 34 33 38 35 31 41 38 30 29 27 24 21 22 20 20 15 19 17
Wind_Direction_500mb
32 9 321 260 267 108 100 63 81 120 95 54 68 44 71 36 30 80 142 145 146 153 153 146 148 150 151 154 152 149 153 154 147 144 143 145 144 141 143 147 157 179 163 196 299 247 184 181 131
339 279 251 263 122 73 93 81 54 52 49 87 94 248 47 67 52 125 140 149 147 150 149 154 150 148 153 152 151 160 160 161 159 153 152 153 164 177 189 178 174 173 173 238 257 264 257 226 169
28 257 260 272 45 34 97 207 130 92 13 347 103 28 26 79 110 137 145 148 147 149 152 161 151 149 155 150 153 156 159 167 171 169 173 185 194 197 191 182 196 207 227 234 253 259 254 247 260
290 232 234 337 58 85 114 211 120 156 113 30 346 81 92 94 133 143 151 148 149 151 161 158 152 152 151 149 153 158 160 165 173 181 188 205 209 214 214 224 232 235 241 244 247 254 255 258 242
286 253 76 64 56 63 79 34 161 153 146 151 88 42 88 123 140 149 152 151 149 154 169 173 158 159 151 151 156 157 161 167 176 183 201 219 228 231 238 247 239 245 255 251 248 250 250 250 245
247 280 50 74 61 71 85 43 225 151 148 149 154 122 91 137 147 151 154 153 154 157 163 173 171 165 165 157 164 168 175 174 185 202 210 226 235 233 237 243 223 195 228 207 228 220 208 226 235
340 348 47 72 89 62 34 23 85 136 258 47 213 93 129 139 148 154 158 156 158 161 159 170 171 176 174 177 179 185 189 197 209 221 229 240 232 229 229 217 208 229 248 256 223 242 207 200 165
329 283 33 43 346 60 38 147 28 48 327 175 262 333 152 152 157 160 162 161 166 164 165 178 176 178 180 189 192 192 198 220 226 237 228 233 230 229 193 224 227 166 290 264 244 237 218 196 170
262 270 58 21 9 43 63 338 92 340 155 184 232 135 156 160 162 165 157 166 170 175 175 182 186 186 177 191 218 203 201 219 239 232 224 222 225 206 244 228 200 199 23 255 242 216 221 210 162
316 27 24 29 337 1 109 314 2 208 186 157 147 105 146 161 170 174 170 173 180 178 181 185 184 186 179 177 215 198 226 222 216 220 247 142 247 84 260 275 262 262 259 284 230 229 200 190 219
4 44 7 19 17 330 357 242 162 249 259 167 157 160 163 169 177 182 183 178 185 185 188 183 189 193 178 188 176 198 229 208 206 194 196 232 240 265 204 257 285 305 295 266 240 237 238 227 205
271 207 295 12 334 298 297 357 281 281 348 19 158 167 174 178 182 187 187 184 186 190 189 189 187 175 187 192 198 210 197 201 210 208 187 206 179 222 238 253 313 290 255 265 179 194 185 232 218
251 351 301 4 113 273 247 266 299 283 234 168 234 171 182 186 185 194 193 189 188 191 192 193 195 195 198 192 199 200 213 222 207 216 209 194 192 207 262 272 229 221 304 266 177 187 180 203 228
353 292 282 352 17 258 282 271 204 195 189 176 194 181 186 193 188 198 195 186 186 192 194 197 199 203 198 200 201 212 202 215 200 201 216 192 185 232 278 288 241 269 278 244 288 217 212 214 220
283 277 281 149 344 324 309 254 212 221 181 180 181 185 181 193 195 199 193 194 190 195 190 199 200 212 201 206 215 220 203 223 233 192 207 211 221 248 259 316 336 324 281 352 261 273 218 211 207
253 258 265 92 327 102 285 329 132 145 196 189 187 184 190 189 193 195 193 195 189 197 191 201 198 209 223 205 214 228 180 217 219 197 217 210 214 222 232 251 213 252 224 269 247 267 352 181 197
197 284 346 291 184 322 262 311 111 190 222 217 188 183 195 186 191 187 189 195 193 197 195 200 199 204 206 206 210 226 198 206 204 205 203 236 203 237 223 285 247 281 145 150 327 320 296 151 189
344 327 335 314 329 329 291 278 279 192 207 216 207 193 192 190 196 185 194 195 194 195 204 202 201 205 201 211 221 216 217 218 212 197 207 207 206 227 237 259 260 198 194 234 225 205 247 341 311
304 287 288 269 25 311 305 310 286 334 181 226 217 191 192 196 193 189 194 193 195 194 198 202 210 201 207 207 221 223 224 231 209 209 213 209 206 229 235 243 269 269 218 245 253 261 290 323 247
246 265 269 1 196 271 293 341 21 10 314 190 225 215 198 188 188 194 195 202 204 201 200 207 210 204 209 215 216 228 232 234 222 205 212 213 216 220 229 216 228 252 257 272 231 251 244 302 262
239 252 325 332 303 259 283 117 279 117 120 187 210 219 221 203 180 190 197 200 201 200 206 208 209 215 219 209 216 210 221 215 215 198 211 212 206 210 216 240 212 236 222 264 201 272 243 289 249
272 16 302 278 283 293 267 234 321 329 135 160 186 216 223 210 210 185 198 196 202 201 204 208 205 213 216 208 213 218 224 223 220 205 207 209 207 211 222 241 232 236 229 259 276 286 252 283 276
298 320 290 284 271 270 199 9 5 296 42 65 139 189 220 229 211 213 185 214 196 193 197 206 205 204 205 213 213 222 215 211 209 209 206 204 211 208 220 228 227 239 237 253 248 245 293 261 293
277 281 268 250 240 260 327 51 216 247 30 65 42 7 290 217 219 209 211 200 218 186 189 200 200 204 200 207 217 221 217 206 215 208 211 205 211 216 216 217 220 233 238 255 257 266 272 261 261
236 254 277 280 243 63 231 167 188 12 78 51 6 29 348 264 214 211 205 212 196 177 194 198 198 199 201 205 210 215 219 208 211 210 205 210 208 210 216 224 218 232 260 250 234 256 255 274 269
248 310 305 312 305 138 269 197 173 110 131 147 71 66 63 321 193 208 207 210 191 195 196 194 199 201 203 205 207 208 210 212 216 212 215 213 210 217 206 223 212 231 235 257 247 253 258 265 275
279 245 299 293 286 243 104 305 70 12 136 106 72 61 45 125 188 204 215 203 201 202 203 199 195 199 202 207 209 207 208 208 210 206 215 211 211 201 207 200 225 229 234 241 239 246 263 236 266
270 322 289 305 343 317 147 236 82 112 70 68 49 43 40 84 178 194 203 202 203 207 203 192 210 199 203 211 215 206 217 216 202 209 212 207 206 204 210 215 229 239 229 233 247 245 268 239 244
208 234 228 279 309 307 291 135 339 60 78 72 64 37 49 54 142 191 201 199 204 206 203 199 204 201 206 206 212 212 218 209 210 213 215 207 212 215 220 219 233 226 232 237 247 225 222 249 246
280 286 283 270 248 284 324 102 73 105 87 81 69 50 47 48 90 172 199 199 200 201 198 192 200 205 207 209 206 210 210 205 211 209 218 219 207 214 217 225 231 232 229 231 232 233 220 249 258
Wind_Speed_850mb
16 14 7 9 9 7 15 10 6 14 16 18 17 21 18 30 20 8 41 36 42 38 38 37 37 34 29 25 29 27 27 26 27 26 24 20 18 15 14 14 12 13 10 1 4 3 4 4 8
2 11 9 17 4 4 17 11 13 24 21 6 13 5 9 27 20 37 45 43 43 38 36 35 34 33 30 28 27 28 28 26 24 21 18 14 10 10 11 12 11 11 8 14 12 11 7 6 4
7 10 29 9 11 8 18 6 13 12 9 10 9 10 16 18 20 39 39 46 42 36 35 36 35 32 30 30 26 26 26 23 22 20 13 9 6 8 11 10 12 14 14 17 20 18 15 11 10
11 16 16 4 19 28 22 17 18 19 15 9 21 17 19 12 31 26 46 45 40 37 33 40 33 36 29 29 27 23 21 21 21 17 13 10 9 10 8 10 11 12 12 15 18 18 17 16 14
10 15 4 18 19 15 15 7 3 10 7 12 7 4 22 22 21 33 47 43 39 36 32 38 31 34 28 25 24 23 20 18 15 13 11 10 10 10 11 13 11 9 9 10 11 11 10 12 10
12 12 6 17 18 12 6 5 12 13 13 12 11 22 19 18 32 45 42 39 37 35 29 34 32 29 27 21 21 21 18 15 13 14 13 12 13 12 13 10 6 7 4 8 8 5 5 6 5
11 11 12 14 9 20 16 2 10 12 20 10 12 13 25 31 38 42 40 39 36 33 32 28 28 29 27 22 19 21 19 14 14 13 12 12 11 11 10 8 8 10 8 6 5 3 5 4 5
9 13 6 10 8 20 15 3 3 7 19 8 2 12 30 39 42 41 39 38 35 33 30 27 26 25 22 21 22 21 17 12 12 13 14 13 10 7 5 8 10 7 7 12 8 7 6 6 7
12 14 12 19 19 10 10 4 4 7 7 6 3 24 36 39 43 43 43 39 37 32 30 27 26 26 22 20 18 19 17 14 14 14 13 11 9 10 6 11 10 11 2 10 11 7 6 6 4
19 11 15 10 17 15 9 11 4 12 11 10 9 11 35 39 44 45 46 42 41 35 32 30 27 26 28 31 24 14 13 10 9 10 12 10 9 12 3 9 14 16 15 11 20 12 6 6 16
10 15 6 10 16 16 14 7 4 8 7 17 20 23 32 39 42 44 43 46 38 36 32 37 29 33 23 28 13 17 25 13 14 13 17 13 4 9 5 13 11 9 13 11 11 15 11 14 14
14 3 4 7 7 11 11 11 8 6 3 8 20 24 34 39 40 41 43 38 38 36 35 32 30 24 26 24 20 25 9 14 19 14 13 14 10 12 13 13 6 11 9 5 4 6 11 17 13
10 12 13 12 4 10 7 12 10 6 8 10 7 23 33 35 36 38 40 39 38 37 36 35 30 29 28 22 19 19 14 15 17 19 13 13 11 9 21 9 7 7 8 4 6 11 14 18 11
11 20 21 7 11 6 12 16 7 11 5 10 13 24 31 34 34 36 39 43 40 36 37 35 33 33 28 27 21 23 19 16 16 19 15 25 14 10 17 10 24 3 5 6 8 5 9 12 13
16 25 18 10 13 11 18 28 21 12 10 15 20 23 29 35 34 35 41 42 41 37 36 37 35 33 30 28 24 31 20 18 18 18 19 20 15 12 14 6 6 5 2 8 5 1 10 13 16
16 22 11 15 9 10 11 17 14 17 15 19 24 27 31 29 31 34 41 40 42 39 37 32 26 35 27 28 26 28 20 15 14 18 18 18 16 19 8 2 1 7 6 3 5 8 4 11 14
19 17 8 11 11 8 10 21 11 13 20 23 28 33 33 33 34 38 41 42 41 41 38 34 30 29 31 29 30 29 25 17 16 20 21 20 16 15 9 6 2 6 4 3 9 5 13 15 10
15 10 11 14 7 15 21 23 16 23 25 29 30 33 35 37 40 41 41 41 43 42 40 34 35 28 27 29 36 30 24 22 20 24 26 18 17 16 12 9 11 3 5 1 5 6 8 5 5
17 18 19 15 11 19 25 25 25 18 32 25 35 37 45 45 47 46 39 44 41 42 40 41 35 32 34 30 28 31 31 24 21 23 25 24 22 19 18 11 11 5 10 9 4 6 6 5 6
21 25 29 2 7 20 21 25 6 7 12 28 32 32 38 43 48 46 46 46 42 44 42 39 38 40 36 28 28 24 26 29 21 26 28 27 24 21 15 15 10 13 10 8 7 7 6 7 9
28 30 15 21 22 33 19 17 44 17 8 8 25 32 33 39 60 63 59 50 45 45 43 42 43 41 42 37 34 31 23 25 30 30 27 26 28 23 20 18 17 12 13 16 3 7 10 8 10
30 19 14 20 23 18 6 5 16 26 22 11 15 26 35 38 40 71 61 56 52 49 42 41 41 43 41 42 41 37 37 29 27 34 30 28 29 25 21 17 16 15 16 8 7 10 9 10 7
24 21 22 28 29 37 7 2 19 63 25 13 8 14 21 33 44 46 63 51 61 52 45 42 42 43 41 38 41 36 35 35 25 29 33 34 31 25 19 21 16 12 10 15 20 15 10 10 13
20 30 39 40 32 14 25 5 12 19 15 12 16 12 4 25 36 46 47 67 54 48 41 42 44 42 40 39 36 40 38 39 32 31 37 34 27 26 27 25 21 17 17 16 13 12 13 13 15
31 35 25 15 21 7 39 8 3 7 16 13 11 14 9 8 25 39 42 49 37 36 41 45 44 40 39 41 37 39 36 39 32 27 34 34 36 33 32 26 22 20 18 18 16 16 15 15 14
22 25 17 25 14 9 42 7 14 18 24 13 16 16 7 3 13 30 38 44 36 34 45 46 46 42 40 44 39 40 34 30 41 30 28 34 36 33 31 31 22 22 21 17 14 16 15 18 14
19 20 20 24 33 14 11 41 18 31 31 22 19 22 18 6 14 28 28 38 40 41 51 52 41 42 40 37 38 36 34 35 30 27 32 41 40 29 24 28 22 25 26 22 20 19 16 18 14
25 24 23 11 15 24 16 14 9 11 22 20 14 20 21 12 14 21 28 33 39 39 39 42 40 40 33 33 35 32 30 34 31 30 31 34 35 30 36 26 24 22 21 21 23 17 10 14 12
21 27 16 26 14 20 15 2 20 11 14 13 15 15 20 16 11 19 26 31 35 35 40 42 40 36 39 38 34 31 32 33 35 34 33 42 34 29 29 24 25 23 21 20 22 18 19 14 15
21 28 31 19 16 10 30 12 18 18 17 15 19 12 15 14 8 8 20 26 31 34 38 41 33 33 34 37 40 37 35 34 33 38 35 31 41 38 30 29 27 24 21 22 20 20 15 19 17
Wind_Direction_850mb
32 9 321 260 267 108 100 63 81 120 95 54 68 44 71 36 30 80 142 145 146 153 153 146 148 150 151 154 152 149 153 154 147 144 143 145 144 141 143 147 157 179 163 196 299 247 184 181 131
339 279 251 263 122 73 93 81 54 52 49 87 94 248 47 67 52 125 140 149 147 150 149 154 150 148 153 152 151 160 160 161 159 153 152 153 164 177 189 178 174 173 173 238 257 264 257 226 169
28 257 260 272 45 34 97 207 130 92 13 347 103 28 26 79 110 137 145 148 147 149 152 161 151 149 155 150 153 156 159 167 171 169 173 185 194 197 191 182 196 207 227 234 253 259 254 247 260
290 232 234 337 58 85 114 211 120 156 113 30 346 81 92 94 133 143 151 148 149 151 161 158 152 152 151 149 153 158 160 165 173 181 188 205 209 214 214 224 232 235 241 244 247 254 255 258 242
286 253 76 64 56 63 79 34 161 153 146 151 88 42 88 123 140 149 152 151 149 154 169 173 158 159 151 151 156 157 161 167 176 183 201 219 228 231 238 247 239 245 255 251 248 250 250 250 245
247 280 50 74 61 71 85 43 225 151 148 149 154 122 91 137 147 151 154 153 154 157 163 173 171 165 165 157 164 168 175 174 185 202 210 226 235 233 237 243 223 195 228 207 228 220 208 226 235
340 348 47 72 89 62 34 23 85 136 258 47 213 93 129 139 148 154 158 156 158 161 159 170 171 176 174 177 179 185 189 197 209 221 229 240 232 229 229 217 208 229 248 256 223 242 207 200 165
329 283 33 43 346 60 38 147 28 48 327 175 262 333 152 152 157 160 162 161 166 164 165 178 176 178 180 189 192 192 198 220 226 237 228 233 230 229 193 224 227 166 290 264 244 237 218 196 170
262 270 58 21 9 43 63 338 92 340 155 184 232 135 156 160 162 165 157 166 170 175 175 182 186 186 177 191 218 203 201 219 239 232 224 222 225 206 244 228 200 199 23 255 242 216 221 210 162
316 27 24 29 337 1 109 314 2 208 186 157 147 105 146 161 170 174 170 173 180 178 181 185 184 186 179 177 215 198 226 222 216 220 247 142 247 84 260 275 262 262 259 284 230 229 200 190 219
4 44 7 19 17 330 357 242 162 249 259 167 157 160 163 169 177 182 183 178 185 185 188 183 189 193 178 188 176 198 229 208 206 194 196 232 240 265 204 257 285 305 295 266 240 237 238 227 205
271 207 295 12 334 298 297 357 281 281 348 19 158 167 174 178 182 187 187 184 186 190 189 189 187 175 187 192 198 210 197 201 210 208 187 206 179 222 238 253 313 290 255 265 179 194 185 232 218
251 351 301 4 113 273 247 266 299 283 234 168 234 171 182 186 185 194 193 189 188 191 192 193 195 195 198 192 199 200 213 222 207 216 209 194 192 207 262 272 229 221 304 266 177 187 180 203 228
353 292 282 352 17 258 282 271 204 195 189 176 194 181 186 193 188 198 195 186 186 192 194 197 199 203 198 200 201 212 202 215 200 201 216 192 185 232 278 288 241 269 278 244 288 217 212 214 220
283 277 281 149 344 324 309 254 212 221 181 180 181 185 181 193 195 199 193 194 190 195 190 199 200 212 201 206 215 220 203 223 233 192 207 211 221 248 259 316 336 324 281 352 261 273 218 211 207
253 258 265 92 327 102 285 329 132 145 196 189 187 184 190 189 193 195 193 195 189 197 191 201 198 209 223 205 214 228 180 217 219 197 217 210 214 222 232 251 213 252 224 269 247 267 352 181 197
197 284 346 291 184 322 262 311 111 190 222 217 188 183 195 186 191 187 189 195 193 197 195 200 199 204 206 206 210 226 198 206 204 205 203 236 203 237 223 285 247 281 145 150 327 320 296 151 189
344 327 335 314 329 329 291 278 279 192 207 216 207 193 192 190 196 185 194 195 194 195 204 202 201 205 201 211 221 216 217 218 212 197 207 207 206 227 237 259 260 198 194 234 225 205 247 341 311
304 287 288 269 25 311 305 310 286 334 181 226 217 191 192 196 193 189 194 193 195 194 198 202 210 201 207 207 221 223 224 231 209 209 213 209 206 229 235 243 269 269 218 245 253 261 290 323 247
246 265 269 1 196 271 293 341 21 10 314 190 225 215 198 188 188 194 195 202 204 201 200 207 210 204 209 215 216 228 232 234 222 205 212 213 216 220 229 216 228 252 257 272 231 251 244 302 262
239 252 325 332 303 259 283 117 279 117 120 187 210 219 221 203 180 190 197 200 201 200 206 208 209 215 219 209 216 210 221 215 215 198 211 212 206 210 216 240 212 236 222 264 201 272 243 289 249
272 16 302 278 283 293 267 234 321 329 135 160 186 216 223 210 210 185 198 196 202 201 204 208 205 213 216 208 213 218 224 223 220 205 207 209 207 211 222 241 232 236 229 259 276 286 252 283 276
298 320 290 284 271 270 199 9 5 296 42 65 139 189 220 229 211 213 185 214 196 193 197 206 205 204 205 213 213 222 215 211 209 209 206 204 211 208 220 228 227 239 237 253 248 245 293 261 293
277 281 268 250 240 260 327 51 216 247 30 65 42 7 290 217 219 209 211 200 218 186 189 200 200 204 200 207 217 221 217 206 215 208 211 205 211 216 216 217 220 233 238 255 257 266 272 261 261
236 254 277 280 243 63 231 167 188 12 78 51 6 29 348 264 214 211 205 212 196 177 194 198 198 199 201 205 210 215 219 208 211 210 205 210 208 210 216 224 218 232 260 250 234 256 255 274 269
248 310 305 312 305 138 269 197 173 110 131 147 71 66 63 321 193 208 207 210 191 195 196 194 199 201 203 205 207 208 210 212 216 212 215 213 210 217 206 223 212 231 235 257 247 253 258 265 275
279 245 299 293 286 243 104 305 70 12 136 106 72 61 45 125 188 204 215 203 201 202 203 199 195 199 202 207 209 207 208 208 210 206 215 211 211 201 207 200 225 229 234 241 239 246 263 236 266
270 322 289 305 343 317 147 236 82 112 70 68 49 43 40 84 178 194 203 202 203 207 203 192 210 199 203 211 215 206 217 216 202 209 212 207 206 204 210 215 229 239 229 233 247 245 268 239 244
208 234 228 279 309 307 291 135 339 60 78 72 64 37 49 54 142 191 201 199 204 206 203 199 204 201 206 206 212 212 218 209 210 213 215 207 212 215 220 219 233 226 232 237 247 225 222 249 246
280 286 283 270 248 284 324 102 73 105 87 81 69 50 47 48 90 172 199 199 200 201 198 192 200 205 207 209 206 210 210 205 211 209 218 219 207 214 217 225 231 232 229 231 232 233 220 249 258